Year,Month,Day,Hour,Minute,Value (Times are PST for temperature in C)
2013,01,18,00,00,1.80
2013,01,18,00,01,1.80
2013,01,18,00,02,1.80
2013,01,18,00,03,1.80
2013,01,18,00,04,1.80
2013,01,18,00,05,1.90
2013,01,18,00,06,1.90
2013,01,18,00,07,1.90
2013,01,18,00,08,1.90
2013,01,18,00,09,1.90
2013,01,18,00,10,1.90
2013,01,18,00,11,1.90
2013,01,18,00,12,1.90
2013,01,18,00,13,1.90
2013,01,18,00,16,2.00
2013,01,18,00,17,2.00
2013,01,18,00,18,2.00
2013,01,18,00,19,2.00
2013,01,18,00,20,2.00
2013,01,18,00,21,2.00
2013,01,18,00,22,2.00
2013,01,18,00,23,2.00
2013,01,18,00,24,2.00
2013,01,18,00,25,2.10
2013,01,18,00,26,2.10
2013,01,18,00,27,2.10
2013,01,18,00,28,2.10
2013,01,18,00,29,2.10
2013,01,18,00,30,2.10
2013,01,18,00,31,2.10
2013,01,18,00,32,2.10
2013,01,18,00,33,2.10
2013,01,18,00,34,2.10
2013,01,18,00,35,2.20
2013,01,18,00,36,2.20
2013,01,18,00,37,2.20
2013,01,18,00,38,2.20
2013,01,18,00,39,2.20
2013,01,18,00,40,2.20
2013,01,18,00,41,2.20
2013,01,18,00,42,2.20
2013,01,18,00,43,2.20
2013,01,18,00,44,2.20
2013,01,18,00,45,2.20
2013,01,18,00,46,2.20
2013,01,18,00,47,2.20
2013,01,18,00,48,2.20
2013,01,18,00,49,2.20
2013,01,18,00,50,2.20
2013,01,18,00,51,2.20
2013,01,18,00,52,2.20
2013,01,18,00,53,2.20
2013,01,18,00,54,2.20
2013,01,18,00,55,2.20
2013,01,18,00,56,2.30
2013,01,18,00,57,2.30
2013,01,18,00,58,2.30
2013,01,18,00,59,2.30
2013,01,18,01,00,2.30
2013,01,18,01,01,2.30
2013,01,18,01,02,2.30
2013,01,18,01,03,2.30
2013,01,18,01,04,2.40
2013,01,18,01,05,2.40
2013,01,18,01,06,2.40
2013,01,18,01,07,2.40
2013,01,18,01,08,2.40
2013,01,18,01,09,2.40
2013,01,18,01,10,2.40
2013,01,18,01,11,2.40
2013,01,18,01,12,2.40
2013,01,18,01,13,2.40
2013,01,18,01,14,2.40
2013,01,18,01,15,2.50
2013,01,18,01,16,2.50
2013,01,18,01,17,2.50
2013,01,18,01,18,2.50
2013,01,18,01,19,2.50
2013,01,18,01,20,2.50
2013,01,18,01,21,2.50
2013,01,18,01,22,2.50
2013,01,18,01,23,2.60
2013,01,18,01,24,2.60
2013,01,18,01,25,2.60
2013,01,18,01,26,2.60
2013,01,18,01,27,2.60
2013,01,18,01,28,2.60
2013,01,18,01,29,2.60
2013,01,18,01,30,2.60
2013,01,18,01,31,2.60
2013,01,18,01,32,2.60
2013,01,18,01,33,2.60
2013,01,18,01,34,2.60
2013,01,18,01,35,2.60
2013,01,18,01,36,2.60
2013,01,18,01,37,2.60
2013,01,18,01,38,2.60
2013,01,18,01,39,2.60
2013,01,18,01,40,2.60
2013,01,18,01,41,2.60
2013,01,18,01,42,2.60
2013,01,18,01,43,2.60
2013,01,18,01,44,2.60
2013,01,18,01,45,2.60
2013,01,18,01,46,2.60
2013,01,18,01,47,2.60
2013,01,18,01,48,2.60
2013,01,18,01,49,2.60
2013,01,18,01,50,2.70
2013,01,18,01,51,2.70
2013,01,18,01,52,2.70
2013,01,18,01,53,2.70
2013,01,18,01,54,2.70
2013,01,18,01,55,2.70
2013,01,18,01,56,2.70
2013,01,18,01,57,2.70
2013,01,18,01,58,2.70
2013,01,18,01,59,2.70
2013,01,18,02,00,2.70
2013,01,18,02,01,2.70
2013,01,18,02,02,2.70
2013,01,18,02,03,2.70
2013,01,18,02,04,2.70
2013,01,18,02,05,2.70
2013,01,18,02,06,2.70
2013,01,18,02,07,2.70
2013,01,18,02,08,2.70
2013,01,18,02,09,2.70
2013,01,18,02,10,2.70
2013,01,18,02,11,2.70
2013,01,18,02,12,2.70
2013,01,18,02,13,2.70
2013,01,18,02,14,2.70
2013,01,18,02,15,2.70
2013,01,18,02,16,2.70
2013,01,18,02,17,2.70
2013,01,18,02,18,2.70
2013,01,18,02,19,2.70
2013,01,18,02,20,2.70
2013,01,18,02,21,2.70
2013,01,18,02,22,2.70
2013,01,18,02,23,2.70
2013,01,18,02,24,2.70
2013,01,18,02,25,2.70
2013,01,18,02,26,2.70
2013,01,18,02,27,2.70
2013,01,18,02,28,2.70
2013,01,18,02,29,2.80
2013,01,18,02,30,2.80
2013,01,18,02,31,2.80
2013,01,18,02,32,2.80
2013,01,18,02,33,2.80
2013,01,18,02,34,2.80
2013,01,18,02,35,2.80
2013,01,18,02,36,2.80
2013,01,18,02,37,2.80
2013,01,18,02,38,2.80
2013,01,18,02,39,2.80
2013,01,18,02,40,2.80
2013,01,18,02,41,2.80
2013,01,18,02,42,2.80
2013,01,18,02,43,2.80
2013,01,18,02,44,2.80
2013,01,18,02,45,2.80
2013,01,18,02,46,2.80
2013,01,18,02,47,2.80
2013,01,18,02,48,2.80
2013,01,18,02,49,2.80
2013,01,18,02,50,2.80
2013,01,18,02,51,2.80
2013,01,18,02,52,2.80
2013,01,18,02,53,2.80
2013,01,18,02,54,2.80
2013,01,18,02,55,2.80
2013,01,18,02,56,2.80
2013,01,18,02,57,2.80
2013,01,18,02,58,2.80
2013,01,18,02,59,2.80
2013,01,18,03,00,2.80
2013,01,18,03,01,2.80
2013,01,18,03,02,2.80
2013,01,18,03,03,2.90
2013,01,18,03,04,2.90
2013,01,18,03,05,2.90
2013,01,18,03,06,2.90
2013,01,18,03,07,2.90
2013,01,18,03,08,2.90
2013,01,18,03,09,2.90
2013,01,18,03,10,2.90
2013,01,18,03,11,2.90
2013,01,18,03,12,2.90
2013,01,18,03,13,2.90
2013,01,18,03,14,2.90
2013,01,18,03,15,2.90
2013,01,18,03,16,2.90
2013,01,18,03,17,2.90
2013,01,18,03,18,2.90
2013,01,18,03,19,2.90
2013,01,18,03,20,2.90
2013,01,18,03,21,2.90
2013,01,18,03,22,2.90
2013,01,18,03,23,2.90
2013,01,18,03,24,2.90
2013,01,18,03,25,2.90
2013,01,18,03,26,2.90
2013,01,18,03,27,2.90
2013,01,18,03,28,2.90
2013,01,18,03,29,2.90
2013,01,18,03,30,2.90
2013,01,18,03,31,2.90
2013,01,18,03,32,2.90
2013,01,18,03,33,2.90
2013,01,18,03,34,2.90
2013,01,18,03,35,2.90
2013,01,18,03,36,2.90
2013,01,18,03,37,2.90
2013,01,18,03,38,2.90
2013,01,18,03,39,2.90
2013,01,18,03,40,2.90
2013,01,18,03,41,2.90
2013,01,18,03,42,2.90
2013,01,18,03,43,2.90
2013,01,18,03,44,2.90
2013,01,18,03,45,2.90
2013,01,18,03,46,2.90
2013,01,18,03,47,2.90
2013,01,18,03,48,2.90
2013,01,18,03,49,2.90
2013,01,18,03,50,2.90
2013,01,18,03,51,2.90
2013,01,18,03,52,2.90
2013,01,18,03,53,2.90
2013,01,18,03,54,2.90
2013,01,18,03,55,2.90
2013,01,18,03,56,2.90
2013,01,18,03,57,2.90
2013,01,18,03,58,2.90
2013,01,18,03,59,2.90
2013,01,18,04,00,2.90
2013,01,18,04,01,2.90
2013,01,18,04,02,2.90
2013,01,18,04,03,2.90
2013,01,18,04,04,2.90
2013,01,18,04,05,2.90
2013,01,18,04,06,2.90
2013,01,18,04,07,2.90
2013,01,18,04,08,2.90
2013,01,18,04,09,2.90
2013,01,18,04,10,2.90
2013,01,18,04,11,2.90
2013,01,18,04,12,2.90
2013,01,18,04,13,2.90
2013,01,18,04,14,2.90
2013,01,18,04,15,2.90
2013,01,18,04,16,2.90
2013,01,18,04,17,2.90
2013,01,18,04,18,2.90
2013,01,18,04,19,2.90
2013,01,18,04,20,2.90
2013,01,18,04,21,2.90
2013,01,18,04,22,2.90
2013,01,18,04,23,2.90
2013,01,18,04,24,2.90
2013,01,18,04,25,2.90
2013,01,18,04,26,2.90
2013,01,18,04,27,3.00
2013,01,18,04,28,3.10
2013,01,18,04,29,3.10
2013,01,18,04,30,3.10
2013,01,18,04,31,3.10
2013,01,18,04,32,3.10
2013,01,18,04,33,3.10
2013,01,18,04,34,3.10
2013,01,18,04,35,3.10
2013,01,18,04,36,3.10
2013,01,18,04,37,3.10
2013,01,18,04,38,3.10
2013,01,18,04,39,3.10
2013,01,18,04,40,3.10
2013,01,18,04,41,3.10
2013,01,18,04,42,3.10
2013,01,18,04,43,3.10
2013,01,18,04,44,3.10
2013,01,18,04,45,3.10
2013,01,18,04,46,3.10
2013,01,18,04,47,3.10
2013,01,18,04,48,3.10
2013,01,18,04,49,3.10
2013,01,18,04,50,3.10
2013,01,18,04,51,3.10
2013,01,18,04,52,3.10
2013,01,18,04,53,3.10
2013,01,18,04,54,3.10
2013,01,18,04,55,3.10
2013,01,18,04,56,3.10
2013,01,18,04,57,3.10
2013,01,18,04,58,3.10
2013,01,18,04,59,3.10
2013,01,18,05,00,3.10
2013,01,18,05,01,3.10
2013,01,18,05,02,3.10
2013,01,18,05,03,3.10
2013,01,18,05,04,3.10
2013,01,18,05,05,3.10
2013,01,18,05,06,3.10
2013,01,18,05,07,3.10
2013,01,18,05,08,3.10
2013,01,18,05,09,3.10
2013,01,18,05,10,3.10
2013,01,18,05,11,3.10
2013,01,18,05,12,3.10
2013,01,18,05,13,3.10
2013,01,18,05,14,3.10
2013,01,18,05,15,3.10
2013,01,18,05,16,3.10
2013,01,18,05,17,3.10
2013,01,18,05,18,3.10
2013,01,18,05,19,3.10
2013,01,18,05,20,3.10
2013,01,18,05,21,3.10
2013,01,18,05,22,3.10
2013,01,18,05,23,3.10
2013,01,18,05,24,3.10
2013,01,18,05,25,3.10
2013,01,18,05,26,3.10
2013,01,18,05,27,3.10
2013,01,18,05,28,3.10
2013,01,18,05,29,3.10
2013,01,18,05,30,3.10
2013,01,18,05,31,3.10
2013,01,18,05,32,3.10
2013,01,18,05,33,3.10
2013,01,18,05,34,3.10
2013,01,18,05,35,3.10
2013,01,18,05,36,3.10
2013,01,18,05,37,3.10
2013,01,18,05,38,3.10
2013,01,18,05,39,3.10
2013,01,18,05,40,3.10
2013,01,18,05,41,3.10
2013,01,18,05,42,3.10
2013,01,18,05,43,3.10
2013,01,18,05,44,3.10
2013,01,18,05,45,3.10
2013,01,18,05,46,3.10
2013,01,18,05,47,3.10
2013,01,18,05,48,3.10
2013,01,18,05,49,3.10
2013,01,18,05,50,3.10
2013,01,18,05,51,3.10
2013,01,18,05,52,3.10
2013,01,18,05,53,3.10
2013,01,18,05,54,3.10
2013,01,18,05,55,3.10
2013,01,18,05,56,3.10
2013,01,18,05,57,3.10
2013,01,18,05,58,3.10
2013,01,18,05,59,3.10
2013,01,18,06,00,3.10
2013,01,18,06,01,3.10
2013,01,18,06,02,3.10
2013,01,18,06,03,3.10
2013,01,18,06,04,3.10
2013,01,18,06,05,3.10
2013,01,18,06,06,3.10
2013,01,18,06,07,3.10
2013,01,18,06,08,3.10
2013,01,18,06,09,3.10
2013,01,18,06,10,3.10
2013,01,18,06,11,3.10
2013,01,18,06,12,3.10
2013,01,18,06,13,3.10
2013,01,18,06,14,3.10
2013,01,18,06,15,3.10
2013,01,18,06,16,3.10
2013,01,18,06,17,3.10
2013,01,18,06,18,3.10
2013,01,18,06,19,3.10
2013,01,18,06,20,3.10
2013,01,18,06,21,3.10
2013,01,18,06,22,3.10
2013,01,18,06,23,3.10
2013,01,18,06,24,3.10
2013,01,18,06,25,3.20
2013,01,18,06,26,3.20
2013,01,18,06,27,3.20
2013,01,18,06,28,3.20
2013,01,18,06,29,3.20
2013,01,18,06,30,3.20
2013,01,18,06,31,3.20
2013,01,18,06,32,3.20
2013,01,18,06,33,3.20
2013,01,18,06,34,3.20
2013,01,18,06,35,3.20
2013,01,18,06,36,3.20
2013,01,18,06,37,3.20
2013,01,18,06,38,3.20
2013,01,18,06,39,3.20
2013,01,18,06,40,3.20
2013,01,18,06,41,3.20
2013,01,18,06,42,3.20
2013,01,18,06,43,3.20
2013,01,18,06,44,3.20
2013,01,18,06,45,3.20
2013,01,18,06,46,3.20
2013,01,18,06,47,3.20
2013,01,18,06,48,3.20
2013,01,18,06,49,3.20
2013,01,18,06,50,3.20
2013,01,18,06,51,3.20
2013,01,18,06,52,3.20
2013,01,18,06,53,3.20
2013,01,18,06,54,3.20
2013,01,18,06,55,3.20
2013,01,18,06,56,3.20
2013,01,18,06,57,3.20
2013,01,18,06,58,3.20
2013,01,18,06,59,3.20
2013,01,18,07,00,3.20
2013,01,18,07,01,3.20
2013,01,18,07,02,3.20
2013,01,18,07,03,3.20
2013,01,18,07,04,3.20
2013,01,18,07,05,3.20
2013,01,18,07,06,3.20
2013,01,18,07,07,3.20
2013,01,18,07,08,3.20
2013,01,18,07,09,3.20
2013,01,18,07,10,3.20
2013,01,18,07,11,3.20
2013,01,18,07,12,3.20
2013,01,18,07,13,3.20
2013,01,18,07,14,3.20
2013,01,18,07,15,3.20
2013,01,18,07,16,3.20
2013,01,18,07,17,3.20
2013,01,18,07,18,3.20
2013,01,18,07,19,3.20
2013,01,18,07,20,3.20
2013,01,18,07,21,3.20
2013,01,18,07,22,3.20
2013,01,18,07,23,3.20
2013,01,18,07,24,3.20
2013,01,18,07,25,3.20
2013,01,18,07,26,3.20
2013,01,18,07,27,3.20
2013,01,18,07,28,3.20
2013,01,18,07,29,3.20
2013,01,18,07,30,3.20
2013,01,18,07,31,3.20
2013,01,18,07,32,3.20
2013,01,18,07,33,3.20
2013,01,18,07,34,3.20
2013,01,18,07,35,3.20
2013,01,18,07,36,3.20
2013,01,18,07,37,3.20
2013,01,18,07,38,3.20
2013,01,18,07,39,3.20
2013,01,18,07,40,3.20
2013,01,18,07,41,3.20
2013,01,18,07,42,3.20
2013,01,18,07,43,3.20
2013,01,18,07,44,3.20
2013,01,18,07,45,3.20
2013,01,18,07,46,3.20
2013,01,18,07,47,3.20
2013,01,18,07,48,3.20
2013,01,18,07,49,3.20
2013,01,18,07,50,3.20
2013,01,18,07,51,3.20
2013,01,18,07,52,3.20
2013,01,18,07,53,3.20
2013,01,18,07,54,3.20
2013,01,18,07,55,3.20
2013,01,18,07,56,3.20
2013,01,18,07,57,3.20
2013,01,18,07,58,3.20
2013,01,18,07,59,3.20
2013,01,18,08,00,3.20
2013,01,18,08,01,3.20
2013,01,18,08,02,3.10
2013,01,18,08,03,3.10
2013,01,18,08,04,3.10
2013,01,18,08,05,3.10
2013,01,18,08,06,3.10
2013,01,18,08,07,3.10
2013,01,18,08,08,3.10
2013,01,18,08,09,3.10
2013,01,18,08,10,3.10
2013,01,18,08,11,3.10
2013,01,18,08,12,3.10
2013,01,18,08,13,3.10
2013,01,18,08,14,3.10
2013,01,18,08,15,3.10
2013,01,18,08,16,3.10
2013,01,18,08,17,3.10
2013,01,18,08,18,3.10
2013,01,18,08,19,3.10
2013,01,18,08,20,3.10
2013,01,18,08,21,3.10
2013,01,18,08,22,3.10
2013,01,18,08,23,3.10
2013,01,18,08,24,3.10
2013,01,18,08,25,3.10
2013,01,18,08,26,3.10
2013,01,18,08,27,3.10
2013,01,18,08,28,3.10
2013,01,18,08,29,3.10
2013,01,18,08,30,3.10
2013,01,18,08,31,3.10
2013,01,18,08,32,3.10
2013,01,18,08,33,3.10
2013,01,18,08,34,3.10
2013,01,18,08,35,3.10
2013,01,18,08,36,3.10
2013,01,18,08,37,3.10
2013,01,18,08,38,3.10
2013,01,18,08,39,3.10
2013,01,18,08,40,3.10
2013,01,18,08,41,3.10
2013,01,18,08,42,3.10
2013,01,18,08,43,3.10
2013,01,18,08,44,3.10
2013,01,18,08,45,3.10
2013,01,18,08,46,3.10
2013,01,18,08,47,3.10
2013,01,18,08,48,3.10
2013,01,18,08,49,3.10
2013,01,18,08,50,3.10
2013,01,18,08,51,3.10
2013,01,18,08,52,3.10
2013,01,18,08,53,3.10
2013,01,18,08,54,3.10
2013,01,18,08,55,3.10
2013,01,18,08,56,3.10
2013,01,18,08,57,3.10
2013,01,18,08,58,3.10
2013,01,18,08,59,3.10
2013,01,18,09,00,3.10
2013,01,18,09,01,3.10
2013,01,18,09,02,3.10
2013,01,18,09,03,3.10
2013,01,18,09,04,3.10
2013,01,18,09,05,3.10
2013,01,18,09,06,3.10
2013,01,18,09,07,3.10
2013,01,18,09,08,3.10
2013,01,18,09,09,3.10
2013,01,18,09,10,3.10
2013,01,18,09,11,3.10
2013,01,18,09,12,3.10
2013,01,18,09,13,3.20
2013,01,18,09,14,3.20
2013,01,18,09,15,3.20
2013,01,18,09,16,3.20
2013,01,18,09,17,3.20
2013,01,18,09,18,3.20
2013,01,18,09,19,3.20
2013,01,18,09,20,3.20
2013,01,18,09,21,3.20
2013,01,18,09,22,3.20
2013,01,18,09,23,3.20
2013,01,18,09,24,3.20
2013,01,18,09,25,3.20
2013,01,18,09,26,3.30
2013,01,18,09,27,3.30
2013,01,18,09,28,3.30
2013,01,18,09,29,3.30
2013,01,18,09,30,3.30
2013,01,18,09,31,3.30
2013,01,18,09,32,3.30
2013,01,18,09,33,3.30
2013,01,18,09,34,3.30
2013,01,18,09,35,3.30
2013,01,18,09,36,3.30
2013,01,18,09,37,3.30
2013,01,18,09,38,3.30
2013,01,18,09,39,3.30
2013,01,18,09,40,3.30
2013,01,18,09,41,3.30
2013,01,18,09,42,3.30
2013,01,18,09,43,3.30
2013,01,18,09,44,3.30
2013,01,18,09,45,3.30
2013,01,18,09,46,3.30
2013,01,18,09,47,3.30
2013,01,18,09,48,3.30
2013,01,18,09,49,3.30
2013,01,18,09,50,3.30
2013,01,18,09,51,3.30
2013,01,18,09,52,3.30
2013,01,18,09,53,3.30
2013,01,18,09,54,3.30
2013,01,18,09,55,3.30
2013,01,18,09,56,3.30
2013,01,18,09,57,3.30
2013,01,18,09,58,3.30
2013,01,18,09,59,3.30
2013,01,18,10,00,3.30
2013,01,18,10,01,3.30
2013,01,18,10,02,3.30
2013,01,18,10,03,3.30
2013,01,18,10,04,3.30
2013,01,18,10,05,3.30
2013,01,18,10,06,3.30
2013,01,18,10,07,3.30
2013,01,18,10,08,3.30
2013,01,18,10,09,3.30
2013,01,18,10,10,3.30
2013,01,18,10,11,3.30
2013,01,18,10,12,3.30
2013,01,18,10,13,3.30
2013,01,18,10,14,3.30
2013,01,18,10,15,3.30
2013,01,18,10,16,3.30
2013,01,18,10,17,3.30
2013,01,18,10,18,3.30
2013,01,18,10,19,3.30
2013,01,18,10,20,3.30
2013,01,18,10,21,3.30
2013,01,18,10,22,3.30
2013,01,18,10,23,3.30
2013,01,18,10,24,3.30
2013,01,18,10,25,3.30
2013,01,18,10,26,3.30
2013,01,18,10,27,3.30
2013,01,18,10,28,3.30
2013,01,18,10,29,3.30
2013,01,18,10,30,3.30
2013,01,18,10,31,3.30
2013,01,18,10,32,3.30
2013,01,18,10,33,3.30
2013,01,18,10,34,3.30
2013,01,18,10,35,3.30
2013,01,18,10,36,3.30
2013,01,18,10,37,3.30
2013,01,18,10,38,3.30
2013,01,18,10,39,3.30
2013,01,18,10,40,3.30
2013,01,18,10,41,3.30
2013,01,18,10,42,3.30
2013,01,18,10,43,3.30
2013,01,18,10,44,3.30
2013,01,18,10,45,3.30
2013,01,18,10,46,3.30
2013,01,18,10,47,3.40
2013,01,18,10,48,3.40
2013,01,18,10,49,3.40
2013,01,18,10,50,3.40
2013,01,18,10,51,3.40
2013,01,18,10,52,3.40
2013,01,18,10,53,3.40
2013,01,18,10,54,3.40
2013,01,18,10,55,3.50
2013,01,18,10,56,3.50
2013,01,18,10,57,3.50
2013,01,18,10,58,3.50
2013,01,18,10,59,3.50
2013,01,18,11,00,3.50
2013,01,18,11,01,3.50
2013,01,18,11,02,3.50
2013,01,18,11,03,3.60
2013,01,18,11,04,3.60
2013,01,18,11,05,3.60
2013,01,18,11,06,3.50
2013,01,18,11,07,3.50
2013,01,18,11,08,3.50
2013,01,18,11,09,3.50
2013,01,18,11,10,3.50
2013,01,18,11,11,3.50
2013,01,18,11,12,3.50
2013,01,18,11,13,3.50
2013,01,18,11,14,3.50
2013,01,18,11,15,3.50
2013,01,18,11,16,3.50
2013,01,18,11,17,3.60
2013,01,18,11,18,3.60
2013,01,18,11,19,3.60
2013,01,18,11,20,3.60
2013,01,18,11,21,3.60
2013,01,18,11,22,3.70
2013,01,18,11,23,3.70
2013,01,18,11,24,3.70
2013,01,18,11,25,3.80
2013,01,18,11,26,3.80
2013,01,18,11,27,3.80
2013,01,18,11,28,3.80
2013,01,18,11,29,3.80
2013,01,18,11,30,3.80
2013,01,18,11,31,3.80
2013,01,18,11,32,3.80
2013,01,18,11,33,3.80
2013,01,18,11,34,3.80
2013,01,18,11,35,3.80
2013,01,18,11,36,3.80
2013,01,18,11,37,3.80
2013,01,18,11,38,3.80
2013,01,18,11,39,3.90
2013,01,18,11,40,3.90
2013,01,18,11,41,3.90
2013,01,18,11,42,3.90
2013,01,18,11,43,4.00
2013,01,18,11,44,4.00
2013,01,18,11,45,4.00
2013,01,18,11,46,4.00
2013,01,18,11,47,4.10
2013,01,18,11,48,4.10
2013,01,18,11,49,4.10
2013,01,18,11,50,4.10
2013,01,18,11,51,4.10
2013,01,18,11,52,4.20
2013,01,18,11,53,4.20
2013,01,18,11,54,4.20
2013,01,18,11,55,4.20
2013,01,18,11,56,4.20
2013,01,18,11,57,4.20
2013,01,18,11,58,4.30
2013,01,18,11,59,4.30
2013,01,18,12,00,4.30
2013,01,18,12,01,4.30
2013,01,18,12,02,4.30
2013,01,18,12,03,4.30
2013,01,18,12,04,4.30
2013,01,18,12,05,4.20
2013,01,18,12,06,4.20
2013,01,18,12,07,4.20
2013,01,18,12,08,4.20
2013,01,18,12,09,4.20
2013,01,18,12,10,4.20
2013,01,18,12,11,4.20
2013,01,18,12,12,4.30
2013,01,18,12,13,4.30
2013,01,18,12,14,4.20
2013,01,18,12,15,4.20
2013,01,18,12,16,4.20
2013,01,18,12,17,4.30
2013,01,18,12,18,4.30
2013,01,18,12,19,4.30
2013,01,18,12,20,4.30
2013,01,18,12,21,4.40
2013,01,18,12,22,4.40
2013,01,18,12,23,4.40
2013,01,18,12,24,4.40
2013,01,18,12,25,4.40
2013,01,18,12,26,4.40
2013,01,18,12,27,4.40
2013,01,18,12,28,4.40
2013,01,18,12,29,4.40
2013,01,18,12,30,4.40
2013,01,18,12,31,4.50
2013,01,18,12,32,4.50
2013,01,18,12,33,4.50
2013,01,18,12,34,4.50
2013,01,18,12,35,4.60
2013,01,18,12,36,4.60
2013,01,18,12,37,4.60
2013,01,18,12,38,4.60
2013,01,18,12,39,4.60
2013,01,18,12,40,4.60
2013,01,18,12,41,4.60
2013,01,18,12,42,4.60
2013,01,18,12,43,4.60
2013,01,18,12,44,4.60
2013,01,18,12,45,4.60
2013,01,18,12,46,4.60
2013,01,18,12,47,4.60
2013,01,18,12,48,4.60
2013,01,18,12,49,4.60
2013,01,18,12,50,4.60
2013,01,18,12,51,4.60
2013,01,18,12,52,4.60
2013,01,18,12,53,4.60
2013,01,18,12,54,4.60
2013,01,18,12,55,4.60
2013,01,18,12,56,4.60
2013,01,18,12,57,4.60
2013,01,18,12,58,4.60
2013,01,18,12,59,4.60
2013,01,18,13,00,4.60
2013,01,18,13,01,4.60
2013,01,18,13,02,4.60
2013,01,18,13,03,4.60
2013,01,18,13,04,4.60
2013,01,18,13,05,4.60
2013,01,18,13,06,4.60
2013,01,18,13,07,4.60
2013,01,18,13,08,4.60
2013,01,18,13,09,4.60
2013,01,18,13,10,4.60
2013,01,18,13,11,4.60
2013,01,18,13,12,4.60
2013,01,18,13,13,4.60
2013,01,18,13,14,4.60
2013,01,18,13,15,4.60
2013,01,18,13,16,4.60
2013,01,18,13,17,4.60
2013,01,18,13,18,4.70
2013,01,18,13,19,4.70
2013,01,18,13,20,4.70
2013,01,18,13,21,4.70
2013,01,18,13,22,4.70
2013,01,18,13,23,4.70
2013,01,18,13,24,4.80
2013,01,18,13,25,4.80
2013,01,18,13,26,4.90
2013,01,18,13,27,4.90
2013,01,18,13,28,4.90
2013,01,18,13,29,4.90
2013,01,18,13,30,4.90
2013,01,18,13,31,4.90
2013,01,18,13,32,4.90
2013,01,18,13,33,4.90
2013,01,18,13,34,4.90
2013,01,18,13,35,4.90
2013,01,18,13,36,4.90
2013,01,18,13,37,4.90
2013,01,18,13,38,4.90
2013,01,18,13,39,4.90
2013,01,18,13,40,4.90
2013,01,18,13,41,4.90
2013,01,18,13,42,5.00
2013,01,18,13,43,5.10
2013,01,18,13,44,5.10
2013,01,18,13,45,5.10
2013,01,18,13,46,5.10
2013,01,18,13,47,5.10
2013,01,18,13,48,5.10
2013,01,18,13,49,5.10
2013,01,18,13,50,5.10
2013,01,18,13,51,5.10
2013,01,18,13,52,5.10
2013,01,18,13,53,5.10
2013,01,18,13,54,5.10
2013,01,18,13,55,5.10
2013,01,18,13,56,5.00
2013,01,18,13,57,4.90
2013,01,18,13,58,4.90
2013,01,18,13,59,4.90
2013,01,18,14,00,4.90
2013,01,18,14,01,4.90
2013,01,18,14,02,4.90
2013,01,18,14,03,4.90
2013,01,18,14,04,4.90
2013,01,18,14,05,4.90
2013,01,18,14,06,4.90
2013,01,18,14,07,4.90
2013,01,18,14,08,4.90
2013,01,18,14,09,4.90
2013,01,18,14,10,4.90
2013,01,18,14,11,4.90
2013,01,18,14,12,4.90
2013,01,18,14,13,4.90
2013,01,18,14,14,4.90
2013,01,18,14,15,4.90
2013,01,18,14,16,4.90
2013,01,18,14,17,4.90
2013,01,18,14,18,4.90
2013,01,18,14,19,4.90
2013,01,18,14,20,4.90
2013,01,18,14,21,4.90
2013,01,18,14,22,4.90
2013,01,18,14,23,4.90
2013,01,18,14,24,4.90
2013,01,18,14,25,4.90
2013,01,18,14,26,4.90
2013,01,18,14,27,4.90
2013,01,18,14,28,4.90
2013,01,18,14,29,4.90
2013,01,18,14,30,4.90
2013,01,18,14,31,4.90
2013,01,18,14,32,4.90
2013,01,18,14,33,4.90
2013,01,18,14,34,4.90
2013,01,18,14,35,4.90
2013,01,18,14,36,4.90
2013,01,18,14,37,4.90
2013,01,18,14,38,4.90
2013,01,18,14,39,4.90
2013,01,18,14,40,4.90
2013,01,18,14,41,4.90
2013,01,18,14,42,4.90
2013,01,18,14,43,4.90
2013,01,18,14,44,4.90
2013,01,18,14,45,4.90
2013,01,18,14,46,4.90
2013,01,18,14,47,4.90
2013,01,18,14,48,4.90
2013,01,18,14,49,4.90
2013,01,18,14,50,4.90
2013,01,18,14,51,4.80
2013,01,18,14,52,4.80
2013,01,18,14,53,4.80
2013,01,18,14,54,4.80
2013,01,18,14,55,4.80
2013,01,18,14,56,4.80
2013,01,18,14,57,4.80
2013,01,18,14,58,4.80
2013,01,18,14,59,4.80
2013,01,18,15,00,4.80
2013,01,18,15,01,4.80
2013,01,18,15,02,4.70
2013,01,18,15,03,4.70
2013,01,18,15,04,4.70
2013,01,18,15,05,4.70
2013,01,18,15,06,4.70
2013,01,18,15,07,4.70
2013,01,18,15,08,4.60
2013,01,18,15,09,4.60
2013,01,18,15,10,4.60
2013,01,18,15,11,4.60
2013,01,18,15,12,4.70
2013,01,18,15,13,4.70
2013,01,18,15,14,4.70
2013,01,18,15,15,4.70
2013,01,18,15,16,4.70
2013,01,18,15,17,4.70
2013,01,18,15,18,4.70
2013,01,18,15,19,4.70
2013,01,18,15,20,4.70
2013,01,18,15,21,4.70
2013,01,18,15,22,4.70
2013,01,18,15,23,4.70
2013,01,18,15,24,4.70
2013,01,18,15,25,4.60
2013,01,18,15,26,4.60
2013,01,18,15,27,4.60
2013,01,18,15,28,4.60
2013,01,18,15,29,4.60
2013,01,18,15,30,4.60
2013,01,18,15,31,4.60
2013,01,18,15,32,4.60
2013,01,18,15,33,4.60
2013,01,18,15,34,4.60
2013,01,18,15,35,4.60
2013,01,18,15,36,4.60
2013,01,18,15,37,4.60
2013,01,18,15,38,4.60
2013,01,18,15,39,4.60
2013,01,18,15,40,4.60
2013,01,18,15,41,4.60
2013,01,18,15,42,4.60
2013,01,18,15,43,4.60
2013,01,18,15,44,4.60
2013,01,18,15,45,4.60
2013,01,18,15,46,4.60
2013,01,18,15,47,4.60
2013,01,18,15,48,4.60
2013,01,18,15,49,4.60
2013,01,18,15,50,4.60
2013,01,18,15,51,4.60
2013,01,18,15,52,4.60
2013,01,18,15,53,4.60
2013,01,18,15,54,4.60
2013,01,18,15,55,4.60
2013,01,18,15,56,4.60
2013,01,18,15,57,4.60
2013,01,18,15,58,4.60
2013,01,18,15,59,4.60
2013,01,18,16,00,4.60
2013,01,18,16,01,4.60
2013,01,18,16,02,4.60
2013,01,18,16,03,4.60
2013,01,18,16,04,4.50
2013,01,18,16,05,4.50
2013,01,18,16,06,4.50
2013,01,18,16,07,4.50
2013,01,18,16,08,4.40
2013,01,18,16,09,4.40
2013,01,18,16,10,4.40
2013,01,18,16,11,4.40
2013,01,18,16,12,4.40
2013,01,18,16,13,4.40
2013,01,18,16,14,4.40
2013,01,18,16,15,4.40
2013,01,18,16,16,4.40
2013,01,18,16,17,4.40
2013,01,18,16,18,4.40
2013,01,18,16,19,4.30
2013,01,18,16,20,4.30
2013,01,18,16,21,4.30
2013,01,18,16,22,4.30
2013,01,18,16,23,4.20
2013,01,18,16,24,4.20
2013,01,18,16,25,4.20
2013,01,18,16,26,4.20
2013,01,18,16,27,4.20
2013,01,18,16,28,4.20
2013,01,18,16,29,4.20
2013,01,18,16,30,4.20
2013,01,18,16,31,4.20
2013,01,18,16,32,4.20
2013,01,18,16,33,4.10
2013,01,18,16,34,4.10
2013,01,18,16,35,4.10
2013,01,18,16,36,4.10
2013,01,18,16,37,4.10
2013,01,18,16,38,4.10
2013,01,18,16,39,4.10
2013,01,18,16,40,4.10
2013,01,18,16,41,4.10
2013,01,18,16,42,4.00
2013,01,18,16,43,4.00
2013,01,18,16,44,4.00
2013,01,18,16,45,4.00
2013,01,18,16,46,4.00
2013,01,18,16,47,4.00
2013,01,18,16,48,4.00
2013,01,18,16,49,4.00
2013,01,18,16,50,4.00
2013,01,18,16,51,4.00
2013,01,18,16,52,4.00
2013,01,18,16,53,4.00
2013,01,18,16,54,4.00
2013,01,18,16,55,4.00
2013,01,18,16,56,4.00
2013,01,18,16,57,4.00
2013,01,18,16,58,4.00
2013,01,18,16,59,4.00
2013,01,18,17,00,4.00
2013,01,18,17,01,3.90
2013,01,18,17,02,3.90
2013,01,18,17,03,3.90
2013,01,18,17,04,3.90
2013,01,18,17,05,3.90
2013,01,18,17,06,3.80
2013,01,18,17,07,3.80
2013,01,18,17,08,3.80
2013,01,18,17,09,3.80
2013,01,18,17,10,3.80
2013,01,18,17,11,3.80
2013,01,18,17,12,3.80
2013,01,18,17,13,3.80
2013,01,18,17,14,3.80
2013,01,18,17,15,3.80
2013,01,18,17,16,3.80
2013,01,18,17,17,3.80
2013,01,18,17,18,3.80
2013,01,18,17,19,3.80
2013,01,18,17,20,3.70
2013,01,18,17,21,3.70
2013,01,18,17,22,3.70
2013,01,18,17,23,3.70
2013,01,18,17,24,3.70
2013,01,18,17,25,3.70
2013,01,18,17,26,3.70
2013,01,18,17,27,3.70
2013,01,18,17,28,3.70
2013,01,18,17,29,3.70
2013,01,18,17,30,3.70
2013,01,18,17,31,3.70
2013,01,18,17,32,3.70
2013,01,18,17,33,3.70
2013,01,18,17,34,3.70
2013,01,18,17,35,3.70
2013,01,18,17,36,3.70
2013,01,18,17,37,3.70
2013,01,18,17,38,3.70
2013,01,18,17,39,3.70
2013,01,18,17,40,3.70
2013,01,18,17,41,3.70
2013,01,18,17,42,3.70
2013,01,18,17,43,3.70
2013,01,18,17,44,3.70
2013,01,18,17,45,3.70
2013,01,18,17,46,3.70
2013,01,18,17,47,3.70
2013,01,18,17,48,3.70
2013,01,18,17,49,3.60
2013,01,18,17,50,3.60
2013,01,18,17,51,3.60
2013,01,18,17,52,3.60
2013,01,18,17,53,3.60
2013,01,18,17,54,3.60
2013,01,18,17,55,3.60
2013,01,18,17,56,3.60
2013,01,18,17,57,3.60
2013,01,18,17,58,3.60
2013,01,18,17,59,3.60
2013,01,18,18,00,3.60
2013,01,18,18,01,3.60
2013,01,18,18,02,3.60
2013,01,18,18,03,3.60
2013,01,18,18,04,3.50
2013,01,18,18,05,3.50
2013,01,18,18,06,3.50
2013,01,18,18,07,3.50
2013,01,18,18,08,3.50